Vertical_Velocity
-2 -2 -3 -4 -2 -3 -2 -2 -1 -1 -2 0 -3 -3 0 -1 -3 -5 -5 -5 -2 2 1 0 1 -0 5 7 -28 10 9 2 -6 7 -12 -4 12 1 -0 -1 10 13 -4 -1 -7 -0 0
-3 -4 -3 -2 -1 1 1 -2 -3 -2 -0 0 0 -0 -2 -2 -3 -6 -6 -7 -0 -3 -0 0 3 2 7 13 -2 19 0 2 -6 20 -5 15 -11 -6 -0 -2 6 -6 -1 -5 3 -7 -1
-2 -2 1 0 -1 -2 -2 -1 1 1 1 -0 -1 -1 -2 -3 -6 -5 -6 -2 1 -1 -2 -0 5 3 12 -41 -8 36 10 9 7 -1 7 -11 -1 11 -4 7 -10 -9 13 6 -1 -7 -3
-0 0 -2 -1 -1 -2 -0 -0 -0 -0 -2 -3 -4 -5 -4 -1 3 -2 -1 0 2 -2 -2 -1 8 2 -5 22 17 6 -5 -14 -8 2 9 11 -2 9 18 -7 14 18 19 14 -9 4 -15
-1 -0 0 1 -0 -0 -1 1 0 -1 -2 -4 -4 -4 0 1 -1 1 -7 -16 1 -5 1 2 -2 -1 0 -14 -36 -24 -13 -5 -3 -8 8 -3 37 -6 13 10 14 8 -5 5 5 -2 -1
-1 -0 -0 -0 -1 -0 -0 -1 -2 -2 -2 -1 -2 0 -3 2 4 -2 -2 -3 -2 -9 -8 6 -15 5 -13 9 -6 8 13 6 11 -6 5 19 11 3 8 12 -10 -3 6 4 -3 -3 10
-0 -1 -2 1 1 1 0 -2 -2 -3 -3 -1 -2 -6 -3 -2 4 -3 -5 -31 -47 -16 -12 15 6 3 -3 -2 28 -11 -12 -9 -6 16 3 -6 9 -2 -14 -5 -5 1 3 -1 -3 -3 1
-3 -3 1 0 0 -1 -1 -1 -3 -4 -3 -3 -2 0 -7 -2 1 -0 8 -17 8 -1 -10 -4 5 -1 -0 4 -9 -13 -24 -3 1 0 3 6 -4 -14 1 3 4 4 1 -2 -2 2 9
-2 0 -1 -0 -0 -2 -2 -2 -1 0 -1 -4 -5 0 -3 -4 -5 -1 16 1 -2 -3 3 4 7 6 2 5 -5 -7 -3 -1 5 3 -1 7 -9 2 5 2 10 -1 -1 -1 -8 -0 -0
0 -1 1 -2 -2 -2 -1 -1 -0 -2 0 -1 -3 -5 4 -11 -18 -10 12 6 -2 -0 4 7 -14 -9 -20 19 -4 3 -5 6 -2 4 2 1 -8 1 1 -1 3 6 -4 0 1 2 -3
-0 -0 1 0 -3 -4 -4 -3 -1 -0 -2 -0 0 -0 -8 3 2 -2 11 3 1 4 -1 -10 -15 -3 -17 3 10 -5 4 0 0 -1 10 4 -2 -2 2 -3 -1 -4 -0 -4 -1 1 2
-1 -0 -0 -1 -2 -2 -3 -4 -3 -0 -0 -1 1 1 -9 -14 8 17 6 9 -5 4 -3 -2 3 -5 -13 -8 -8 -4 -1 -28 -0 3 -4 3 -0 -1 5 -1 -1 -1 -2 3 2 1 8
-0 -3 -1 -3 -4 -0 -2 -3 -4 -3 2 3 -0 2 -10 2 -0 -4 2 9 4 -5 -6 -10 -1 -1 0 -1 -14 -4 -2 -9 -1 -3 -6 -7 -1 -1 -2 3 3 2 -1 2 9 10 -2
-2 -3 -3 -5 -5 -1 -2 -4 -2 1 -4 -0 2 -8 5 7 3 -11 -2 -22 -12 7 5 -5 1 -6 4 3 -7 2 -4 -5 -5 -3 1 2 -9 0 -2 3 5 -2 -1 -2 -0 0 3
-4 -2 -1 -4 -5 -5 -4 -4 -5 -0 0 -3 -1 -6 -16 -10 -7 7 -31 -11 11 5 9 2 -14 -4 -5 -9 15 -4 -1 3 4 4 6 -0 -4 -4 -1 1 5 0 1 1 -2 -1 -2
-4 -2 -1 -0 -3 -2 -2 -5 -3 -2 -2 -2 -4 0 -12 -1 8 -30 -14 3 -1 5 0 -8 2 5 2 -1 -4 -4 1 12 -0 5 1 -2 1 2 0 -7 -6 6 3 2 2 0 -0
-2 -2 0 -1 -3 -3 -2 -2 -4 -8 -3 -3 -9 6 -0 -9 -10 -16 -0 6 -1 4 1 2 3 -1 5 5 5 2 8 -3 -2 -5 -1 2 4 -10 -7 -1 7 -8 -4 -3 -1 -2 -2
-1 -3 -2 -2 -1 -3 -6 -2 1 -5 -13 -4 -2 -4 -8 2 -28 0 -1 11 -1 0 -6 -1 -2 2 4 0 -0 -1 6 9 2 8 1 2 2 1 3 -1 -1 3 3 2 2 5 -0
1 -3 -2 -1 1 -2 -6 -2 -3 -5 -1 -8 1 6 -2 -28 -2 -2 -3 -1 4 -6 1 -3 -0 2 1 3 -2 0 -0 1 2 -1 6 -4 -5 -3 -2 -4 -11 -1 -1 1 0 1 2
-2 -4 -3 -1 -3 -2 -5 -5 -1 -3 -4 -7 2 -3 -8 -19 0 -1 -0 1 -4 -1 -1 1 3 -3 -5 -2 -4 -1 -3 -4 2 2 1 -3 -1 2 3 4 3 -5 -3 -1 2 -3 0
-1 -1 -1 -4 -2 -1 -3 -5 -4 -4 -4 -8 -8 3 1 -1 -9 -0 -3 2 -1 -3 -1 -2 -7 2 5 -0 -2 -1 -1 -5 -6 -2 -3 -3 1 -1 1 1 -1 4 3 -0 -2 5 -1
-0 -0 -1 -2 -2 -2 -2 -5 -3 -5 -6 -16 -0 -1 -10 -2 1 -3 -1 -0 4 -6 4 -2 -1 0 1 -0 5 0 4 1 3 -9 -0 -3 -4 -0 -0 -0 -1 -2 -0 -0 -0 -2 -2
-2 -2 -1 0 -3 -1 -2 -5 -3 -3 -6 -0 1 0 2 -0 -1 -3 3 -1 2 0 -4 7 6 3 -1 2 6 -1 2 -2 2 5 -0 -1 0 -2 -1 0 -1 -9 6 2 1 -0 7
-1 -1 0 -0 -1 -2 -2 -2 -1 -2 -1 -4 -3 1 -1 -2 -1 2 -0 3 1 4 4 -2 1 0 -10 -1 -2 5 0 1 3 1 -1 -0 0 -1 -2 -2 -6 9 1 2 -1 4 -1
-2 -2 0 -1 -0 -1 -2 -1 -2 -1 -1 -3 -2 -3 -2 -1 1 -2 -4 2 -3 -5 -0 -0 -0 5 2 2 -1 -3 2 -2 1 0 -0 -2 -1 -3 -3 0 3 -6 -2 1 4 5 3
-2 -1 0 1 -0 -2 -2 -0 -2 -1 -0 -2 -3 -2 -2 2 2 -0 0 5 1 -0 -5 3 -10 -1 1 1 0 -0 0 0 -5 -10 -2 -0 -2 -5 -3 -3 0 1 -2 0 3 3 2
-1 -1 0 0 -1 0 -1 -1 -3 -1 1 -0 -1 -0 1 -1 1 1 -0 0 1 -2 1 2 -6 -14 2 -0 -0 -0 -0 1 -3 0 -3 -3 -3 -1 -1 -0 0 1 -1 2 -3 0 3
-1 0 0 0 -1 0 -1 -1 -2 -1 -1 0 -0 -0 1 -1 -2 -1 5 -1 -2 1 1 -9 -8 -6 -4 -5 -1 0 -0 -2 -1 -1 0 0 0 0 -3 -3 -6 1 -6 -12 3 1 2
-1 0 -0 -1 -0 0 -1 -1 -1 -2 -1 1 1 1 1 -2 -2 0 -1 -0 0 -1 -4 -6 -1 2 0 -0 -4 -1 -1 -2 0 -1 -2 -7 -7 -5 -9 -2 1 -0 1 3 0 0 1
Height
1538 1534 1531 1527 1524 1520 1515 1510 1504 1499 1494 1490 1484 1478 1471 1465 1458 1452 1446 1441 1435 1428 1423 1419 1417 1418 1419 1419 1408 1406 1407 1407 1407 1408 1410 1414 1416 1419 1414 1419 1427 1420 1424 1433 1433 1432 1431
1538 1535 1532 1529 1523 1518 1513 1508 1502 1498 1493 1488 1482 1475 1469 1463 1456 1450 1443 1437 1430 1424 1419 1415 1412 1413 1415 1412 1408 1409 1407 1407 1406 1408 1408 1409 1408 1411 1415 1415 1414 1416 1424 1425 1427 1428 1428
1539 1536 1533 1528 1522 1517 1512 1507 1502 1497 1492 1486 1479 1473 1468 1461 1455 1447 1440 1432 1426 1419 1415 1412 1409 1408 1411 1407 1405 1408 1406 1404 1404 1403 1401 1404 1409 1408 1410 1410 1414 1418 1420 1423 1419 1422 1423
1540 1537 1532 1528 1522 1517 1512 1507 1502 1497 1491 1484 1478 1472 1466 1459 1452 1445 1437 1429 1422 1416 1412 1408 1407 1408 1408 1405 1402 1401 1399 1398 1398 1398 1397 1400 1403 1403 1402 1404 1404 1411 1417 1408 1409 1418 1422
1542 1538 1533 1528 1523 1518 1512 1507 1502 1497 1491 1484 1478 1471 1465 1459 1451 1442 1434 1425 1420 1415 1409 1407 1407 1405 1406 1404 1399 1399 1396 1396 1394 1392 1393 1393 1397 1395 1399 1397 1402 1397 1386 1393 1405 1406 1415
1542 1538 1534 1529 1523 1518 1513 1508 1502 1497 1490 1484 1477 1471 1464 1457 1449 1442 1433 1426 1420 1418 1411 1408 1406 1407 1408 1407 1403 1399 1397 1393 1389 1388 1387 1388 1385 1381 1387 1387 1374 1377 1387 1387 1399 1399 1405
1543 1539 1534 1529 1525 1520 1514 1508 1502 1496 1490 1483 1477 1470 1463 1456 1449 1442 1433 1426 1422 1424 1419 1421 1420 1418 1412 1407 1404 1398 1395 1387 1383 1384 1385 1380 1382 1367 1368 1377 1380 1377 1388 1387 1387 1397 1405
1544 1539 1534 1531 1526 1520 1514 1508 1502 1496 1490 1483 1475 1468 1462 1455 1449 1443 1439 1434 1438 1438 1430 1421 1419 1417 1413 1407 1401 1399 1396 1393 1389 1381 1376 1378 1370 1361 1372 1373 1381 1383 1386 1385 1381 1384 1392
1544 1540 1536 1532 1527 1521 1515 1508 1502 1497 1490 1482 1474 1468 1461 1454 1447 1444 1442 1439 1436 1436 1434 1422 1420 1416 1411 1408 1405 1401 1398 1394 1387 1380 1374 1369 1366 1366 1369 1368 1375 1376 1382 1388 1384 1378 1384
1545 1540 1537 1533 1527 1521 1515 1509 1503 1497 1489 1481 1474 1468 1462 1453 1448 1443 1442 1437 1434 1434 1432 1423 1419 1417 1413 1406 1406 1402 1399 1396 1390 1384 1374 1364 1357 1364 1370 1366 1366 1367 1373 1378 1376 1378 1396
1546 1542 1538 1533 1527 1522 1516 1509 1503 1496 1489 1481 1473 1469 1463 1454 1450 1444 1441 1435 1432 1434 1434 1425 1425 1422 1416 1411 1408 1404 1400 1392 1391 1386 1384 1368 1366 1374 1371 1363 1366 1362 1367 1369 1376 1381 1390
1547 1543 1538 1533 1527 1522 1516 1510 1504 1496 1487 1480 1475 1470 1461 1455 1451 1446 1438 1434 1433 1432 1452 1434 1434 1423 1419 1411 1408 1406 1401 1395 1389 1383 1379 1374 1375 1375 1375 1367 1365 1366 1370 1374 1381 1384 1380
1548 1544 1539 1533 1528 1522 1517 1511 1504 1496 1488 1481 1476 1472 1463 1459 1451 1444 1434 1430 1431 1455 1451 1445 1437 1426 1417 1415 1410 1407 1406 1403 1405 1398 1389 1379 1379 1379 1380 1373 1368 1366 1366 1367 1367 1369 1365
1549 1544 1539 1534 1529 1524 1519 1512 1505 1497 1490 1482 1478 1475 1468 1463 1457 1448 1440 1439 1452 1461 1458 1450 1441 1431 1424 1423 1416 1409 1411 1413 1409 1408 1402 1394 1383 1383 1383 1380 1374 1371 1366 1369 1366 1362 1370
1550 1544 1540 1534 1530 1525 1519 1513 1506 1498 1490 1483 1479 1478 1471 1467 1461 1456 1449 1457 1472 1469 1461 1453 1443 1440 1433 1431 1425 1416 1417 1421 1419 1414 1416 1407 1396 1389 1386 1384 1385 1380 1373 1376 1379 1369 1377
1550 1546 1541 1536 1531 1526 1520 1514 1507 1500 1491 1485 1482 1480 1476 1472 1468 1463 1459 1468 1472 1468 1462 1457 1457 1451 1447 1441 1437 1427 1428 1428 1425 1419 1413 1415 1404 1395 1392 1384 1385 1382 1383 1380 1381 1380 1378
1551 1547 1542 1537 1532 1527 1522 1515 1509 1501 1494 1488 1484 1483 1484 1477 1473 1469 1474 1477 1475 1472 1468 1464 1463 1459 1457 1452 1447 1438 1440 1431 1429 1423 1418 1417 1415 1406 1396 1405 1404 1397 1397 1389 1378 1384 1373
1552 1547 1542 1537 1533 1528 1523 1517 1511 1503 1495 1490 1488 1489 1488 1481 1477 1478 1481 1481 1479 1476 1473 1470 1467 1463 1464 1455 1451 1451 1445 1444 1437 1433 1427 1421 1419 1412 1413 1413 1410 1410 1407 1399 1393 1384 1387
1552 1548 1543 1538 1535 1530 1525 1519 1513 1505 1498 1492 1493 1493 1493 1485 1486 1487 1486 1486 1481 1480 1477 1473 1471 1469 1468 1462 1465 1458 1452 1448 1442 1439 1436 1431 1427 1421 1410 1415 1411 1410 1413 1407 1400 1400 1393
1553 1548 1544 1540 1535 1531 1526 1521 1515 1509 1504 1499 1498 1498 1496 1495 1496 1494 1491 1492 1487 1483 1481 1478 1476 1472 1471 1467 1464 1466 1459 1452 1448 1444 1437 1432 1435 1438 1442 1438 1427 1424 1417 1413 1407 1406 1410
1553 1548 1544 1540 1536 1532 1527 1523 1518 1512 1507 1503 1504 1508 1507 1504 1498 1496 1496 1497 1491 1488 1485 1482 1479 1481 1479 1483 1474 1470 1466 1460 1452 1449 1444 1443 1447 1441 1433 1432 1429 1431 1428 1425 1422 1420 1410
1553 1548 1544 1541 1537 1533 1529 1526 1520 1515 1511 1507 1510 1511 1509 1506 1502 1499 1501 1500 1496 1493 1490 1488 1489 1485 1482 1484 1482 1478 1476 1469 1464 1454 1452 1450 1451 1440 1437 1431 1432 1436 1436 1432 1430 1431 1429
1553 1548 1545 1541 1538 1534 1531 1527 1522 1518 1513 1512 1513 1513 1512 1508 1505 1503 1506 1503 1500 1496 1493 1492 1491 1487 1484 1480 1478 1475 1473 1470 1467 1462 1462 1461 1459 1454 1450 1435 1435 1446 1450 1446 1446 1446 1442
1552 1549 1545 1542 1538 1535 1532 1528 1524 1521 1518 1516 1515 1515 1514 1511 1508 1508 1507 1504 1501 1497 1496 1492 1490 1489 1482 1476 1470 1469 1469 1467 1465 1462 1460 1465 1468 1459 1460 1441 1463 1459 1456 1453 1454 1456 1453
1552 1549 1545 1542 1539 1536 1533 1530 1526 1523 1520 1517 1516 1516 1516 1514 1512 1509 1508 1505 1501 1499 1494 1492 1490 1487 1480 1474 1472 1472 1468 1465 1460 1460 1459 1459 1466 1471 1462 1466 1459 1465 1464 1463 1461 1461 1461
1552 1548 1545 1542 1539 1536 1533 1530 1528 1524 1521 1518 1517 1516 1515 1517 1514 1512 1509 1506 1506 1502 1496 1492 1489 1485 1481 1477 1472 1482 1482 1473 1474 1467 1460 1458 1463 1469 1468 1475 1482 1475 1469 1465 1462 1464 1465
1551 1547 1545 1542 1539 1536 1534 1531 1528 1525 1522 1520 1518 1517 1516 1516 1514 1513 1511 1511 1508 1507 1503 1495 1494 1487 1485 1483 1482 1484 1481 1477 1489 1490 1481 1472 1471 1474 1469 1468 1471 1472 1465 1459 1459 1477 1469
1549 1547 1544 1542 1539 1536 1534 1531 1528 1526 1523 1521 1518 1517 1517 1515 1514 1512 1512 1510 1509 1509 1509 1501 1497 1496 1492 1492 1494 1492 1491 1488 1488 1478 1484 1486 1487 1483 1478 1488 1486 1471 1465 1471 1479 1475 1473
1548 1546 1544 1541 1538 1536 1533 1530 1527 1524 1522 1520 1518 1516 1514 1513 1512 1511 1510 1510 1509 1508 1508 1507 1507 1505 1503 1501 1498 1498 1495 1489 1487 1488 1473 1488 1487 1491 1491 1483 1480 1479 1479 1479 1478 1476 1475